Aitutaki Airport


Codes: NCAI/AIT
Name: Aitutaki Airport
City: Aitutaki
Country: Cook Islands
Elevation: 14 ft.
Wikipedia:

Photos at Aitutaki Airport


   Photos courtesy of SpottingLog. You can add your own sightings and photos by signing up for a free trial today.



No photos found.

Weather at Aitutaki Airport


Time (UTC)DescriptionTempratureWindCloud coverageVisibilityPressureHumidity
16-Jun-2024 09:00Light Rain26°C18 mph, E20%10000m1018hPa80%
16-Jun-2024 12:00Light Rain26°C18 mph, E19%10000m1018hPa79%
16-Jun-2024 15:00Scattered Clouds26°C16 mph, E33%10000m1017hPa75%
16-Jun-2024 18:00Scattered Clouds26°C13 mph, E30%10000m1018hPa74%
16-Jun-2024 21:00Few Clouds26°C13 mph, SE15%10000m1019hPa72%
17-Jun-2024 00:00Few Clouds26°C16 mph, SE12%10000m1016hPa74%
17-Jun-2024 03:00Clear Sky26°C16 mph, SE3%10000m1016hPa74%
17-Jun-2024 06:00Clear Sky26°C18 mph, SE2%10000m1017hPa75%
17-Jun-2024 09:00Clear Sky26°C18 mph, SE3%10000m1017hPa76%
17-Jun-2024 12:00Clear Sky25°C16 mph, SE2%10000m1017hPa76%
17-Jun-2024 15:00Clear Sky25°C16 mph, SE4%10000m1016hPa75%
17-Jun-2024 18:00Few Clouds26°C16 mph, SE13%10000m1018hPa74%
17-Jun-2024 21:00Broken Clouds26°C16 mph, SE72%10000m1018hPa74%
18-Jun-2024 00:00Light Rain25°C20 mph, SE78%10000m1016hPa77%
18-Jun-2024 03:00Broken Clouds25°C20 mph, SE51%10000m1015hPa72%
18-Jun-2024 06:00Scattered Clouds25°C22 mph, SE37%10000m1016hPa74%
18-Jun-2024 09:00Light Rain25°C18 mph, E100%10000m1016hPa69%
18-Jun-2024 12:00Overcast Clouds25°C18 mph, E96%10000m1016hPa66%
18-Jun-2024 15:00Light Rain25°C16 mph, SE100%10000m1015hPa69%
18-Jun-2024 18:00Broken Clouds25°C16 mph, E61%10000m1016hPa67%
18-Jun-2024 21:00Scattered Clouds25°C16 mph, E29%10000m1017hPa65%
19-Jun-2024 00:00Scattered Clouds25°C16 mph, E26%10000m1015hPa64%
19-Jun-2024 03:00Clear Sky25°C16 mph, E4%10000m1014hPa65%
19-Jun-2024 06:00Clear Sky25°C16 mph, E2%10000m1015hPa65%
19-Jun-2024 09:00Clear Sky25°C16 mph, E0%10000m1015hPa66%
19-Jun-2024 12:00Clear Sky25°C16 mph, NE0%10000m1014hPa66%
19-Jun-2024 15:00Few Clouds25°C13 mph, NE23%10000m1013hPa66%
19-Jun-2024 18:00Broken Clouds25°C11 mph, NE60%10000m1015hPa64%
19-Jun-2024 21:00Broken Clouds26°C11 mph, NE82%10000m1015hPa61%
20-Jun-2024 00:00Broken Clouds25°C9 mph, NE60%10000m1013hPa62%
20-Jun-2024 03:00Few Clouds25°C7 mph, NE16%10000m1012hPa63%
20-Jun-2024 06:00Scattered Clouds26°C7 mph, NE34%10000m1013hPa63%
20-Jun-2024 09:00Broken Clouds26°C11 mph, N78%10000m1013hPa62%
20-Jun-2024 12:00Broken Clouds25°C11 mph, N78%10000m1012hPa64%
20-Jun-2024 15:00Scattered Clouds25°C11 mph, N25%10000m1011hPa66%
20-Jun-2024 18:00Few Clouds25°C13 mph, N15%10000m1012hPa66%
20-Jun-2024 21:00Scattered Clouds26°C11 mph, NW38%10000m1012hPa66%
21-Jun-2024 00:00Scattered Clouds26°C13 mph, NW45%10000m1010hPa70%
21-Jun-2024 03:00Clear Sky26°C16 mph, NW2%10000m1009hPa72%
21-Jun-2024 06:00Clear Sky26°C16 mph, NW1%10000m1010hPa74%